Pope Army Airfield, NC

4:25 AM EST on February 12, 2016 (GMT -0500)
Simmons Army Air Field

Weather History for KFBG - May, 2014

Change the Weather History Date:

Monday, May 12, 2014

  Actual Average Record
Temperature  
Mean Temperature 78 °F -  
Max Temperature 90 °F 77 °F 95 °F (2000)
Min Temperature 65 °F 57 °F 48 °F (2006)
Cooling Degree Days 12    
Growing Degree Days 28 (Base 50)    
Moisture  
Dew Point 67 °F    
Average Humidity 86    
Maximum Humidity 100    
Minimum Humidity 37    
Precipitation  
Precipitation 0.00 in - - ()
Sea Level Pressure  
Sea Level Pressure 30.16 in    
Wind  
Wind Speed 2 mph (SSW)    
Max Wind Speed 7 mph    
Max Gust Speed -    
Visibility 6 miles    
Events Fog , Rain    
Averages and records for this station are not official NWS values.
T = Trace of Precipitation, MM = Missing Value Source: NWS Daily Summary

Daily Weather History Graph

Daily Weather History Graph

Search for Another Location

Airport or City:

Trip Planner

Search our weather history database for the weather conditions in past years. The results will help you decide how hot, cold, wet, or windy it might be!

Date:

Astronomy

May. 12, 2014 Rise Set
Actual Time 6:14 AM EDT 8:10 PM EDT
Civil Twilight 5:46 AM EDT 8:38 PM EDT
Nautical Twilight 5:12 AM EDT 9:12 PM EDT
Astronomical Twilight 4:36 AM EDT 9:48 PM EDT
Moon 6:11 PM EDT 4:46 AM EDT
Length of Visible Light 14h 51m
Length of Day
13h 56m
Waxing Gibbous, 95% of the Moon is Illuminated
May 12
Waxing Gibbous
May 14
Full
May 21
Last Quarter
May 28
New
Jun 5
First Quarter

Hourly Weather History & Observations

Time (EDT) Temp. Heat Index Dew Point Humidity Pressure Visibility Wind Dir Wind Speed Gust Speed Precip Events Conditions
12:58 AM 70.5 °F - 68.4 °F 93% 30.14 in 10.0 mi Calm Calm - N/A   Clear
1:58 AM 69.4 °F - 67.8 °F 95% 30.14 in 10.0 mi Calm Calm - N/A   Clear
2:58 AM 68.0 °F - 67.1 °F 97% 30.14 in 9.0 mi Calm Calm - N/A   Clear
3:58 AM 67.3 °F - 66.9 °F 99% 30.12 in 7.0 mi Calm Calm - N/A   Clear
4:58 AM 66.2 °F - 65.5 °F 98% 30.12 in 9.0 mi SSE 2.3 mph - N/A   Clear
5:58 AM 65.7 °F - 64.8 °F 97% 30.14 in 7.0 mi Calm Calm - N/A   Clear
6:24 AM 66.2 °F - 66.2 °F 100% 30.14 in 2.5 mi Calm Calm - N/A   Clear
6:26 AM 66.2 °F - 66.2 °F 100% 30.14 in 2.0 mi Calm Calm - N/A   Clear
6:27 AM 66.2 °F - 66.2 °F 100% 30.14 in 2.0 mi Calm Calm - N/A   Clear
6:28 AM 66.2 °F - 66.2 °F 100% 30.14 in 2.0 mi North - - N/A Rain Light Rain
6:30 AM 66.2 °F - 66.2 °F 100% 30.14 in 2.5 mi Calm Calm - N/A Rain Light Rain
6:32 AM 66.2 °F - 66.2 °F 100% 30.14 in 3.0 mi Calm Calm - N/A Rain Light Rain
6:38 AM 66.2 °F - 66.2 °F 100% 30.14 in 9.0 mi SW 2.3 mph - N/A Rain Light Rain
6:39 AM 66.2 °F - 66.2 °F 100% 30.14 in 10.0 mi WSW 1.2 mph - N/A   Clear
6:58 AM 67.5 °F - 66.6 °F 97% 30.17 in 10.0 mi SW 2.3 mph - 0.00 in   Clear
7:00 AM 68.0 °F - 66.2 °F 94% 30.16 in 10.0 mi WNW 2.3 mph - N/A   Clear
7:01 AM 68.0 °F - 66.2 °F 94% 30.16 in 10.0 mi West 2.3 mph - N/A   Partly Cloudy
7:11 AM 68.0 °F - 66.2 °F 94% 30.16 in 10.0 mi Calm Calm - N/A   Mostly Cloudy
7:19 AM 68.0 °F - 66.2 °F 94% 30.16 in 8.0 mi SW 4.6 mph - N/A   Mostly Cloudy
7:25 AM 68.0 °F - 68.0 °F 100% 30.17 in 1.5 mi SSW 3.5 mph - N/A   Overcast
7:27 AM 68.0 °F - 68.0 °F 100% 30.17 in 1.0 mi Variable 2.3 mph - N/A   Overcast
7:29 AM 68.0 °F - 68.0 °F 100% 30.17 in 0.8 mi South 3.5 mph - N/A   Overcast
7:31 AM 68.0 °F - 68.0 °F 100% 30.17 in 0.8 mi SSW 3.5 mph - N/A   Overcast
7:33 AM 68.0 °F - 68.0 °F 100% 30.17 in 0.5 mi SSW 3.5 mph - N/A Fog Fog
7:37 AM 68.0 °F - 68.0 °F 100% 30.17 in 0.8 mi Variable 1.2 mph - N/A   Overcast
7:41 AM 68.0 °F - 68.0 °F 100% 30.18 in 0.8 mi South 3.5 mph - N/A   Overcast
7:58 AM 68.2 °F - 68.0 °F 99% 30.19 in 0.8 mi SW 3.5 mph - N/A   Overcast
8:00 AM 68.0 °F - 68.0 °F 100% 30.18 in 0.5 mi South 3.5 mph - N/A Fog Fog
8:02 AM 68.0 °F - 68.0 °F 100% 30.18 in 0.8 mi SSW 4.6 mph - N/A   Overcast
8:08 AM 68.0 °F - 68.0 °F 100% 30.18 in 1.0 mi SSW 3.5 mph - N/A   Overcast
8:10 AM 68.0 °F - 68.0 °F 100% 30.18 in 1.2 mi SSW 2.3 mph - N/A   Overcast
8:12 AM 68.0 °F - 68.0 °F 100% 30.18 in 1.5 mi SSW 3.5 mph - N/A   Overcast
8:14 AM 69.8 °F - 68.0 °F 94% 30.18 in 2.0 mi SSW 2.3 mph - N/A   Overcast
8:16 AM 69.8 °F - 68.0 °F 94% 30.18 in 2.5 mi South 3.5 mph - N/A   Overcast
8:18 AM 69.8 °F - 69.8 °F 100% 30.18 in 4.0 mi South 4.6 mph - N/A   Overcast
8:28 AM 69.8 °F - 69.8 °F 100% 30.18 in 2.5 mi Variable 3.5 mph - N/A   Overcast
8:32 AM 69.8 °F - 69.8 °F 100% 30.18 in 3.0 mi SSW 4.6 mph - N/A   Overcast
8:52 AM 71.6 °F - 69.8 °F 94% 30.19 in 10.0 mi SSW 3.5 mph - N/A   Mostly Cloudy
8:57 AM 71.6 °F - 69.8 °F 94% 30.19 in 4.0 mi SW 3.5 mph - N/A   Partly Cloudy
8:58 AM 72.0 °F - 69.4 °F 92% 30.19 in 10.0 mi SW 3.5 mph - N/A   Mostly Cloudy
9:00 AM 71.6 °F - 69.8 °F 94% 30.19 in 10.0 mi Calm Calm - N/A   Scattered Clouds
9:58 AM 78.3 °F - 70.0 °F 76% 30.19 in 10.0 mi Variable 2.3 mph - N/A   Clear
10:58 AM 82.2 °F 85.8 °F 69.4 °F 65% 30.19 in 9.0 mi Calm Calm - N/A   Clear
11:58 AM 84.4 °F 87.1 °F 67.3 °F 56% 30.20 in 10.0 mi Variable 1.2 mph - N/A   Clear
12:58 PM 86.0 °F 87.9 °F 65.1 °F 50% 30.17 in 10.0 mi Variable 2.3 mph - N/A   Partly Cloudy
1:58 PM 88.3 °F 89.9 °F 64.6 °F 45% 30.17 in 10.0 mi West 3.5 mph - N/A   Partly Cloudy
2:58 PM 87.6 °F 88.5 °F 63.1 °F 44% 30.15 in 10.0 mi SSE 5.8 mph - N/A   Partly Cloudy
3:58 PM 90.1 °F 90.6 °F 61.9 °F 39% 30.12 in 10.0 mi Variable 4.6 mph - N/A   Partly Cloudy
4:58 PM 90.5 °F 90.7 °F 61.9 °F 38% 30.12 in 10.0 mi Variable 1.2 mph - N/A   Partly Cloudy
5:58 PM 89.8 °F 89.4 °F 60.6 °F 37% 30.10 in 10.0 mi Variable 2.3 mph - N/A   Clear
6:58 PM 88.5 °F 88.9 °F 61.7 °F 41% 30.10 in 10.0 mi SSE 2.3 mph - N/A   Clear
7:58 PM 85.3 °F 86.6 °F 64.2 °F 49% 30.11 in 10.0 mi SSE 4.6 mph - N/A   Clear
8:58 PM 81.7 °F 83.3 °F 64.6 °F 56% 30.12 in 10.0 mi Variable 6.9 mph - N/A   Clear
9:58 PM 80.1 °F 82.7 °F 68.4 °F 67% 30.14 in 10.0 mi South 3.5 mph - N/A   Clear
10:58 PM 77.5 °F - 68.7 °F 74% 30.14 in 10.0 mi SSE 2.3 mph - N/A   Clear
11:58 PM 76.6 °F - 69.3 °F 78% 30.14 in 10.0 mi South 3.5 mph - N/A   Clear